Location: Newark
(44.1667°N, 8.2500°E)
Time: 22:29:05
(UTC+00:00)

Transit 4A - Pass Details

Date: 14 December 2019
Orbit: 871 x 973 km, 66.8° (Epoch: 23 January)

Event Time Altitude Azimuth Distance (km) Brightness Sun altitude
Rises 17:15:00 0° 254° (WSW) 3,590 12.9 -14.8°
Reaches altitude 10° 17:18:07 10° 269° (W) 2,631 11.5 -15.3°
Maximum altitude 17:22:52 23° 320° (NW) 1,838 9.7 -16.2°
Drops below altitude 10° 17:27:34 10° 12° (NNE) 2,584 10.0 -17.0°
Enters shadow 17:28:34 - 18° (NNE) 2,871 10.1 -17.1°
